Time,TemperatureF,DewpointF,PressureIn,WindDirection,WindDirectionDegrees,WindSpeedMPH,WindSpeedGustMPH,Humidity,HourlyPrecipIn,Conditions,Clouds,dailyrainin,SoftwareType,DateUTC
2013-01-06 00:00:00,33.6,31.8,30.29,WSW,252,0.0,0.0,93,0.00,CLR,,0.00,WeatherDisplay:10.37,2013-01-06 06:00:00,
2013-01-06 00:05:00,33.8,32.0,30.29,WSW,252,0.0,0.0,93,0.00,CLR,,0.00,WeatherDisplay:10.37,2013-01-06 06:05:00,
2013-01-06 00:10:00,33.6,31.8,30.29,WSW,252,0.0,0.0,93,0.00,CLR,,0.00,WeatherDisplay:10.37,2013-01-06 06:10:00,
2013-01-06 00:15:00,33.6,32.1,30.29,WSW,252,0.0,0.0,94,0.00,CLR,,0.00,WeatherDisplay:10.37,2013-01-06 06:15:00,
2013-01-06 00:20:00,33.4,31.9,30.29,WSW,252,0.0,0.0,94,0.00,CLR,,0.00,WeatherDisplay:10.37,2013-01-06 06:20:00,
2013-01-06 00:25:00,33.3,31.7,30.29,WSW,252,0.0,0.0,94,0.00,CLR,,0.00,WeatherDisplay:10.37,2013-01-06 06:25:00,
2013-01-06 00:30:00,33.3,31.7,30.29,WSW,252,0.0,0.0,94,0.00,CLR,,0.00,WeatherDisplay:10.37,2013-01-06 06:30:00,
2013-01-06 00:35:00,33.1,31.5,30.29,WSW,252,0.0,0.0,94,0.00,CLR,,0.00,WeatherDisplay:10.37,2013-01-06 06:35:00,
2013-01-06 00:40:00,32.9,31.4,30.29,WSW,252,0.0,0.0,94,0.00,CLR,,0.00,WeatherDisplay:10.37,2013-01-06 06:40:00,
2013-01-06 00:45:00,32.7,31.2,30.29,WSW,252,0.0,0.0,94,0.00,CLR,,0.00,WeatherDisplay:10.37,2013-01-06 06:45:00,
2013-01-06 00:50:00,32.4,30.8,30.29,WSW,252,0.0,0.0,94,0.00,CLR,,0.00,WeatherDisplay:10.37,2013-01-06 06:50:00,
2013-01-06 00:55:00,32.5,31.0,30.29,WSW,252,0.0,0.0,94,0.00,CLR,,0.00,WeatherDisplay:10.37,2013-01-06 06:55:00,
2013-01-06 01:00:00,32.7,31.2,30.29,WSW,252,0.0,0.0,94,0.00,CLR,,0.00,WeatherDisplay:10.37,2013-01-06 07:00:00,
2013-01-06 01:05:00,33.1,31.8,30.29,WSW,252,0.0,0.0,95,0.00,CLR,,0.00,WeatherDisplay:10.37,2013-01-06 07:05:00,
2013-01-06 01:10:00,32.9,31.6,30.29,WSW,252,0.0,0.0,95,0.00,CLR,,0.00,WeatherDisplay:10.37,2013-01-06 07:10:00,
2013-01-06 01:15:00,32.7,31.4,30.29,WSW,252,0.0,0.0,95,0.00,CLR,,0.00,WeatherDisplay:10.37,2013-01-06 07:15:00,
2013-01-06 01:20:00,32.5,31.3,30.29,WSW,252,0.0,0.0,95,0.00,CLR,,0.00,WeatherDisplay:10.37,2013-01-06 07:20:00,
2013-01-06 01:25:00,32.4,31.1,30.29,WSW,252,0.0,0.0,95,0.00,CLR,,0.00,WeatherDisplay:10.37,2013-01-06 07:25:00,
2013-01-06 01:30:00,32.5,31.3,30.29,WSW,252,0.0,0.0,95,0.00,CLR,,0.00,WeatherDisplay:10.37,2013-01-06 07:30:00,
2013-01-06 01:35:00,32.5,31.3,30.29,WSW,252,0.0,0.0,95,0.00,CLR,,0.00,WeatherDisplay:10.37,2013-01-06 07:35:00,
2013-01-06 01:40:00,32.2,30.9,30.29,WSW,252,0.0,0.0,95,0.00,CLR,,0.00,WeatherDisplay:10.37,2013-01-06 07:40:00,
2013-01-06 01:45:00,32.0,30.7,30.29,WSW,252,0.0,0.0,95,0.00,CLR,,0.00,WeatherDisplay:10.37,2013-01-06 07:45:00,
2013-01-06 01:50:00,31.8,30.6,30.29,WSW,252,0.0,0.0,95,0.00,CLR,,0.00,WeatherDisplay:10.37,2013-01-06 07:50:00,
2013-01-06 01:55:00,31.5,29.9,30.29,WSW,252,0.0,0.0,94,0.00,CLR,,0.00,WeatherDisplay:10.37,2013-01-06 07:55:00,
2013-01-06 02:00:00,31.5,29.9,30.29,WSW,252,0.0,0.0,94,0.00,CLR,,0.00,WeatherDisplay:10.37,2013-01-06 08:00:00,
2013-01-06 02:05:00,31.5,30.2,30.29,WSW,252,0.0,0.0,95,0.00,CLR,,0.00,WeatherDisplay:10.37,2013-01-06 08:05:00,
2013-01-06 02:10:00,31.3,30.0,30.29,WSW,252,0.0,0.0,95,0.00,CLR,,0.00,WeatherDisplay:10.37,2013-01-06 08:10:00,
2013-01-06 02:15:00,31.1,29.8,30.29,WSW,252,0.0,0.0,95,0.00,CLR,,0.00,WeatherDisplay:10.37,2013-01-06 08:15:00,
2013-01-06 02:20:00,31.1,29.8,30.29,WSW,252,0.0,0.0,95,0.00,CLR,,0.00,WeatherDisplay:10.37,2013-01-06 08:20:00,
2013-01-06 02:25:00,31.3,30.0,30.29,SW,233,0.0,0.0,95,0.00,CLR,,0.00,WeatherDisplay:10.37,2013-01-06 08:25:00,
2013-01-06 02:30:00,31.5,30.2,30.29,SW,233,0.0,0.0,95,0.00,CLR,,0.00,WeatherDisplay:10.37,2013-01-06 08:30:00,
2013-01-06 02:36:00,31.6,30.4,30.29,SW,233,0.0,0.0,95,0.00,CLR,,0.00,WeatherDisplay:10.37,2013-01-06 08:36:00,
2013-01-06 02:40:00,32.0,31.0,30.29,SW,233,0.0,0.0,96,0.00,CLR,,0.00,WeatherDisplay:10.37,2013-01-06 08:40:00,
2013-01-06 02:46:00,31.5,30.5,30.29,SW,233,0.0,0.0,96,0.00,CLR,,0.00,WeatherDisplay:10.37,2013-01-06 08:46:00,
2013-01-06 02:51:00,31.3,30.0,30.29,SW,233,0.0,0.0,95,0.00,CLR,,0.00,WeatherDisplay:10.37,2013-01-06 08:51:00,
2013-01-06 02:56:00,31.3,30.0,30.29,SW,233,0.0,0.0,95,0.00,CLR,,0.00,WeatherDisplay:10.37,2013-01-06 08:56:00,
2013-01-06 03:01:00,31.3,30.3,30.29,SW,233,0.0,0.0,96,0.00,CLR,,0.00,WeatherDisplay:10.37,2013-01-06 09:01:00,
2013-01-06 03:06:00,31.5,30.5,30.29,SW,233,0.0,0.0,96,0.00,CLR,,0.00,WeatherDisplay:10.37,2013-01-06 09:06:00,
2013-01-06 03:11:00,31.5,30.5,30.29,SW,233,0.0,0.0,96,0.00,CLR,,0.00,WeatherDisplay:10.37,2013-01-06 09:11:00,
2013-01-06 03:16:00,31.3,30.3,30.29,SW,233,0.0,0.0,96,0.00,CLR,,0.00,WeatherDisplay:10.37,2013-01-06 09:16:00,
2013-01-06 03:21:00,31.1,30.1,30.29,SW,233,0.0,0.0,96,0.00,CLR,,0.00,WeatherDisplay:10.37,2013-01-06 09:21:00,
2013-01-06 03:26:00,31.1,30.1,30.29,SW,233,0.0,0.0,96,0.00,CLR,,0.00,WeatherDisplay:10.37,2013-01-06 09:26:00,
2013-01-06 03:31:00,31.1,30.1,30.29,SW,233,0.0,0.0,96,0.00,CLR,,0.00,WeatherDisplay:10.37,2013-01-06 09:31:00,
2013-01-06 03:36:00,31.1,30.1,30.29,SW,233,0.0,0.0,96,0.00,CLR,,0.00,WeatherDisplay:10.37,2013-01-06 09:36:00,
2013-01-06 03:41:00,30.9,29.9,30.29,SW,233,0.0,0.0,96,0.00,CLR,,0.00,WeatherDisplay:10.37,2013-01-06 09:41:00,
2013-01-06 03:46:00,31.1,30.1,30.29,SW,233,0.0,0.0,96,0.00,CLR,,0.00,WeatherDisplay:10.37,2013-01-06 09:46:00,
2013-01-06 03:51:00,31.1,30.1,30.29,SW,233,0.0,0.0,96,0.00,CLR,,0.00,WeatherDisplay:10.37,2013-01-06 09:51:00,
2013-01-06 03:56:00,31.1,30.1,30.29,SW,233,0.0,0.0,96,0.00,CLR,,0.00,WeatherDisplay:10.37,2013-01-06 09:56:00,
2013-01-06 04:01:00,31.1,30.1,30.29,SW,233,0.0,0.0,96,0.00,CLR,,0.00,WeatherDisplay:10.37,2013-01-06 10:01:00,
2013-01-06 04:06:00,31.1,30.1,30.29,SW,233,0.0,0.0,96,0.00,CLR,,0.00,WeatherDisplay:10.37,2013-01-06 10:06:00,
2013-01-06 04:11:00,31.1,30.1,30.29,SW,233,0.0,0.0,96,0.00,CLR,,0.00,WeatherDisplay:10.37,2013-01-06 10:11:00,
2013-01-06 04:16:00,31.1,30.1,30.29,SW,233,0.0,0.0,96,0.00,CLR,,0.00,WeatherDisplay:10.37,2013-01-06 10:16:00,
2013-01-06 04:21:00,31.1,30.1,30.29,SW,233,0.0,0.0,96,0.00,CLR,,0.00,WeatherDisplay:10.37,2013-01-06 10:21:00,
2013-01-06 04:26:00,31.1,30.3,30.29,SW,233,0.0,0.0,97,0.00,CLR,,0.00,WeatherDisplay:10.37,2013-01-06 10:26:00,
2013-01-06 04:31:00,31.1,30.3,30.29,SW,233,0.0,0.0,97,0.00,CLR,,0.00,WeatherDisplay:10.37,2013-01-06 10:31:00,
2013-01-06 04:36:00,31.1,30.3,30.29,SW,233,0.0,0.0,97,0.00,CLR,,0.00,WeatherDisplay:10.37,2013-01-06 10:36:00,
2013-01-06 04:41:00,31.1,30.3,30.29,SW,233,0.0,0.0,97,0.00,CLR,,0.00,WeatherDisplay:10.37,2013-01-06 10:41:00,
2013-01-06 04:46:00,30.9,30.2,30.29,SW,233,0.0,0.0,97,0.00,CLR,,0.00,WeatherDisplay:10.37,2013-01-06 10:46:00,
2013-01-06 04:51:00,31.1,30.3,30.29,SW,233,0.0,0.0,97,0.00,CLR,,0.00,WeatherDisplay:10.37,2013-01-06 10:51:00,
2013-01-06 04:56:00,30.9,30.2,30.29,SW,233,0.0,0.0,97,0.00,CLR,,0.00,WeatherDisplay:10.37,2013-01-06 10:56:00,
2013-01-06 05:01:00,30.7,30.0,30.29,SW,233,0.0,0.0,97,0.00,CLR,,0.00,WeatherDisplay:10.37,2013-01-06 11:01:00,
2013-01-06 05:06:00,30.9,30.2,30.29,SW,233,0.0,0.0,97,0.00,CLR,,0.00,WeatherDisplay:10.37,2013-01-06 11:06:00,
2013-01-06 05:11:00,30.9,30.2,30.29,SW,233,0.0,0.0,97,0.00,CLR,,0.00,WeatherDisplay:10.37,2013-01-06 11:11:00,
2013-01-06 05:16:00,30.6,29.8,30.29,SW,233,0.0,0.0,97,0.00,CLR,,0.00,WeatherDisplay:10.37,2013-01-06 11:16:00,
2013-01-06 05:21:00,30.6,29.8,30.29,SW,233,0.0,0.0,97,0.00,CLR,,0.00,WeatherDisplay:10.37,2013-01-06 11:21:00,
2013-01-06 05:26:00,30.6,29.8,30.29,SW,233,0.0,0.0,97,0.00,CLR,,0.00,WeatherDisplay:10.37,2013-01-06 11:26:00,
2013-01-06 05:31:00,30.4,29.6,30.29,SW,233,0.0,0.0,97,0.00,CLR,,0.00,WeatherDisplay:10.37,2013-01-06 11:31:00,
2013-01-06 05:36:00,30.4,29.6,30.32,SW,233,0.0,0.0,97,0.00,CLR,,0.00,WeatherDisplay:10.37,2013-01-06 11:36:00,
2013-01-06 05:41:00,30.2,29.5,30.32,SW,233,0.0,0.0,97,0.00,CLR,,0.00,WeatherDisplay:10.37,2013-01-06 11:41:00,
2013-01-06 05:46:00,29.8,29.1,30.32,SW,233,0.0,0.0,97,0.00,CLR,,0.00,WeatherDisplay:10.37,2013-01-06 11:46:00,
2013-01-06 05:51:00,29.7,28.9,30.32,SW,233,0.0,0.0,97,0.00,CLR,,0.00,WeatherDisplay:10.37,2013-01-06 11:51:00,
2013-01-06 05:56:00,29.7,28.9,30.32,SW,233,0.0,0.0,97,0.00,CLR,,0.00,WeatherDisplay:10.37,2013-01-06 11:56:00,
2013-01-06 06:01:00,30.0,30.0,30.32,SW,233,0.0,0.0,100,0.00,CLR,,0.00,WeatherDisplay:10.37,2013-01-06 12:01:00,
2013-01-06 06:06:00,31.1,31.1,30.32,SW,233,0.0,0.0,100,0.00,CLR,,0.00,WeatherDisplay:10.37,2013-01-06 12:06:00,
2013-01-06 06:11:00,31.6,31.6,30.32,SW,233,0.0,0.0,100,0.00,CLR,,0.00,WeatherDisplay:10.37,2013-01-06 12:11:00,
2013-01-06 06:16:00,32.0,32.0,30.32,SW,233,0.0,0.0,100,0.00,CLR,,0.00,WeatherDisplay:10.37,2013-01-06 12:16:00,
2013-01-06 06:21:00,32.5,32.5,30.32,NW,312,0.0,0.0,100,0.00,CLR,,0.00,WeatherDisplay:10.37,2013-01-06 12:21:00,
2013-01-06 06:26:00,32.5,32.5,30.32,NW,313,2.3,0.0,100,0.00,CLR,,0.00,WeatherDisplay:10.37,2013-01-06 12:26:00,
2013-01-06 06:31:00,32.7,32.7,30.32,NNW,330,3.5,0.0,100,0.00,CLR,,0.00,WeatherDisplay:10.37,2013-01-06 12:31:00,
2013-01-06 06:36:00,32.9,32.9,30.32,NNE,18,2.3,0.0,100,0.00,CLR,,0.00,WeatherDisplay:10.37,2013-01-06 12:36:00,
2013-01-06 06:41:00,33.1,33.1,30.32,NNE,15,3.5,0.0,100,0.00,CLR,,0.00,WeatherDisplay:10.37,2013-01-06 12:41:00,
2013-01-06 06:46:00,33.1,33.1,30.32,North,8,3.5,0.0,100,0.00,CLR,,0.00,WeatherDisplay:10.37,2013-01-06 12:46:00,
2013-01-06 06:51:00,33.1,33.1,30.32,NNE,13,2.7,0.0,100,0.00,CLR,,0.00,WeatherDisplay:10.37,2013-01-06 12:51:00,
2013-01-06 06:56:00,33.1,33.1,30.32,North,6,2.3,0.0,100,0.00,CLR,,0.00,WeatherDisplay:10.37,2013-01-06 12:56:00,
2013-01-06 07:01:00,33.1,33.1,30.32,NNE,25,3.6,0.0,100,0.00,CLR,,0.00,WeatherDisplay:10.37,2013-01-06 13:01:00,
2013-01-06 07:06:00,33.1,33.1,30.32,North,8,2.3,0.0,100,0.00,CLR,,0.00,WeatherDisplay:10.37,2013-01-06 13:06:00,
2013-01-06 07:11:00,32.9,32.9,30.32,North,11,3.5,0.0,100,0.00,CLR,,0.00,WeatherDisplay:10.37,2013-01-06 13:11:00,
2013-01-06 07:17:00,32.9,32.9,30.32,NNE,23,3.5,3.5,100,0.00,CLR,,0.00,WeatherDisplay:10.37,2013-01-06 13:17:00,
2013-01-06 07:22:00,32.7,32.7,30.35,North,2,3.5,3.5,100,0.00,CLR,,0.00,WeatherDisplay:10.37,2013-01-06 13:22:00,
2013-01-06 07:27:00,32.7,32.7,30.35,NNE,17,3.5,0.0,100,0.00,CLR,,0.00,WeatherDisplay:10.37,2013-01-06 13:27:00,
2013-01-06 07:32:00,32.7,32.0,30.35,NNE,31,3.5,3.5,97,0.00,CLR,,0.00,WeatherDisplay:10.37,2013-01-06 13:32:00,
2013-01-06 07:37:00,32.9,32.1,30.35,NNE,16,3.5,3.5,97,0.00,CLR,,0.00,WeatherDisplay:10.37,2013-01-06 13:37:00,
2013-01-06 07:42:00,32.9,32.1,30.35,NNW,335,2.3,0.0,97,0.00,CLR,,0.00,WeatherDisplay:10.37,2013-01-06 13:42:00,
2013-01-06 07:47:00,33.1,32.3,30.35,NNE,20,3.5,3.5,97,0.00,CLR,,0.00,WeatherDisplay:10.37,2013-01-06 13:47:00,
2013-01-06 07:52:00,33.1,32.1,30.35,North,0,3.5,3.5,96,0.00,CLR,,0.00,WeatherDisplay:10.37,2013-01-06 13:52:00,
2013-01-06 07:57:00,33.1,32.1,30.35,North,1,3.5,3.5,96,0.00,CLR,,0.00,WeatherDisplay:10.37,2013-01-06 13:57:00,
2013-01-06 08:02:00,33.1,31.8,30.35,NNE,26,3.5,3.5,95,0.00,CLR,,0.00,WeatherDisplay:10.37,2013-01-06 14:02:00,
2013-01-06 08:07:00,33.3,32.0,30.35,North,11,3.5,3.5,95,0.00,CLR,,0.00,WeatherDisplay:10.37,2013-01-06 14:07:00,
2013-01-06 08:12:00,33.4,31.9,30.35,North,2,3.5,3.5,94,0.00,CLR,,0.00,WeatherDisplay:10.37,2013-01-06 14:12:00,
2013-01-06 08:17:00,33.6,31.8,30.35,NNE,16,3.6,0.0,93,0.00,CLR,,0.00,WeatherDisplay:10.37,2013-01-06 14:17:00,
2013-01-06 08:22:00,33.8,31.7,30.35,NNE,17,3.5,0.0,92,0.00,CLR,,0.00,WeatherDisplay:10.37,2013-01-06 14:22:00,
2013-01-06 08:27:00,33.8,31.5,30.35,North,10,3.1,0.0,91,0.00,CLR,,0.00,WeatherDisplay:10.37,2013-01-06 14:27:00,
2013-01-06 08:32:00,34.0,31.4,30.35,NNE,19,3.5,0.0,90,0.00,CLR,,0.00,WeatherDisplay:10.37,2013-01-06 14:32:00,
2013-01-06 08:37:00,34.3,31.4,30.38,NNE,23,4.6,4.6,89,0.00,CLR,,0.00,WeatherDisplay:10.37,2013-01-06 14:37:00,
2013-01-06 08:42:00,34.5,31.6,30.38,North,5,2.3,0.0,89,0.00,CLR,,0.00,WeatherDisplay:10.37,2013-01-06 14:42:00,
2013-01-06 08:47:00,35.1,32.1,30.38,NNE,12,4.6,4.6,89,0.00,CLR,,0.00,WeatherDisplay:10.37,2013-01-06 14:47:00,
2013-01-06 08:52:00,35.6,32.4,30.35,North,9,3.5,3.5,88,0.00,CLR,,0.00,WeatherDisplay:10.37,2013-01-06 14:52:00,
2013-01-06 08:57:00,36.1,32.6,30.35,North,6,3.5,3.5,87,0.00,CLR,,0.00,WeatherDisplay:10.37,2013-01-06 14:57:00,
2013-01-06 09:02:00,36.7,32.6,30.35,NNE,19,5.8,5.8,85,0.00,CLR,,0.00,WeatherDisplay:10.37,2013-01-06 15:02:00,
2013-01-06 09:07:00,36.9,32.2,30.38,North,11,5.8,0.0,83,0.00,CLR,,0.00,WeatherDisplay:10.37,2013-01-06 15:07:00,
2013-01-06 09:12:00,37.2,32.2,30.38,NNW,338,3.5,3.5,82,0.00,CLR,,0.00,WeatherDisplay:10.37,2013-01-06 15:12:00,
2013-01-06 09:17:00,37.6,31.7,30.38,NNE,19,3.5,0.0,79,0.00,CLR,,0.00,WeatherDisplay:10.37,2013-01-06 15:17:00,
2013-01-06 09:22:00,38.1,31.5,30.38,North,1,6.3,6.3,77,0.00,CLR,,0.00,WeatherDisplay:10.37,2013-01-06 15:22:00,
2013-01-06 09:27:00,38.5,31.6,30.38,NNE,14,3.6,3.6,76,0.00,CLR,,0.00,WeatherDisplay:10.37,2013-01-06 15:27:00,
2013-01-06 09:32:00,38.8,31.6,30.38,North,357,5.8,5.8,75,0.00,CLR,,0.00,WeatherDisplay:10.37,2013-01-06 15:32:00,
2013-01-06 09:37:00,39.2,30.9,30.38,NNE,13,11.5,11.5,72,0.00,CLR,,0.00,WeatherDisplay:10.37,2013-01-06 15:37:00,
2013-01-06 09:42:00,39.6,30.9,30.38,NNE,12,5.8,5.8,71,0.00,CLR,,0.00,WeatherDisplay:10.37,2013-01-06 15:42:00,
2013-01-06 09:47:00,40.1,30.7,30.38,North,357,8.0,8.0,69,0.00,CLR,,0.00,WeatherDisplay:10.37,2013-01-06 15:47:00,
2013-01-06 09:52:00,40.5,31.1,30.38,North,357,8.1,8.1,69,0.00,CLR,,0.00,WeatherDisplay:10.37,2013-01-06 15:52:00,
2013-01-06 09:57:00,40.6,30.9,30.38,North,7,9.2,9.2,68,0.00,CLR,,0.00,WeatherDisplay:10.37,2013-01-06 15:57:00,
2013-01-06 10:02:00,41.2,30.7,30.38,North,6,5.4,5.4,66,0.00,CLR,,0.00,WeatherDisplay:10.37,2013-01-06 16:02:00,
2013-01-06 10:07:00,41.5,31.0,30.38,North,10,8.0,8.0,66,0.00,CLR,,0.00,WeatherDisplay:10.37,2013-01-06 16:07:00,
2013-01-06 10:12:00,41.7,30.8,30.38,North,7,5.8,5.8,65,0.00,CLR,,0.00,WeatherDisplay:10.37,2013-01-06 16:12:00,
2013-01-06 10:17:00,42.1,30.4,30.38,NNE,16,5.8,5.8,63,0.00,CLR,,0.00,WeatherDisplay:10.37,2013-01-06 16:17:00,
2013-01-06 10:22:00,42.3,30.9,30.38,North,11,5.8,5.8,64,0.00,CLR,,0.00,WeatherDisplay:10.37,2013-01-06 16:22:00,
2013-01-06 10:27:00,42.4,30.7,30.38,NNE,24,8.1,8.1,63,0.00,CLR,,0.00,WeatherDisplay:10.37,2013-01-06 16:27:00,
2013-01-06 10:32:00,42.8,30.7,30.38,North,4,3.5,3.5,62,0.00,CLR,,0.00,WeatherDisplay:10.37,2013-01-06 16:32:00,
2013-01-06 10:37:00,43.2,30.6,30.38,NNE,18,3.5,3.5,61,0.00,CLR,,0.00,WeatherDisplay:10.37,2013-01-06 16:37:00,
2013-01-06 10:42:00,43.3,30.4,30.38,North,350,4.6,4.6,60,0.00,CLR,,0.00,WeatherDisplay:10.37,2013-01-06 16:42:00,
2013-01-06 10:47:00,43.5,29.7,30.38,North,6,8.1,8.1,58,0.00,CLR,,0.00,WeatherDisplay:10.37,2013-01-06 16:47:00,
2013-01-06 10:52:00,43.7,30.3,30.38,NNE,21,8.1,8.1,59,0.00,CLR,,0.00,WeatherDisplay:10.37,2013-01-06 16:52:00,
2013-01-06 10:57:00,44.2,29.5,30.38,NNE,23,8.1,8.1,56,0.00,CLR,,0.00,WeatherDisplay:10.37,2013-01-06 16:57:00,
2013-01-06 11:02:00,44.6,30.3,30.38,NNE,15,3.5,3.5,57,0.00,CLR,,0.00,WeatherDisplay:10.37,2013-01-06 17:02:00,
2013-01-06 11:07:00,44.8,30.0,30.38,North,11,5.8,5.8,56,0.00,CLR,,0.00,WeatherDisplay:10.37,2013-01-06 17:07:00,
2013-01-06 11:12:00,45.3,30.1,30.38,NNE,24,5.8,5.8,55,0.00,CLR,,0.00,WeatherDisplay:10.37,2013-01-06 17:12:00,
2013-01-06 11:17:00,45.5,30.3,30.38,North,357,5.8,5.8,55,0.00,CLR,,0.00,WeatherDisplay:10.37,2013-01-06 17:17:00,
2013-01-06 11:22:00,45.9,30.1,30.38,NNE,16,3.5,3.5,54,0.00,CLR,,0.00,WeatherDisplay:10.37,2013-01-06 17:22:00,
2013-01-06 11:27:00,46.2,30.5,30.38,North,3,3.5,3.5,54,0.00,CLR,,0.00,WeatherDisplay:10.37,2013-01-06 17:27:00,
2013-01-06 11:32:00,46.6,29.4,30.38,North,4,5.8,5.8,51,0.00,CLR,,0.00,WeatherDisplay:10.37,2013-01-06 17:32:00,
2013-01-06 11:37:00,46.9,29.7,30.38,NNE,17,3.5,0.0,51,0.00,CLR,,0.00,WeatherDisplay:10.37,2013-01-06 17:37:00,
2013-01-06 11:43:00,47.3,29.1,30.38,NE,51,8.1,8.1,49,0.00,CLR,,0.00,WeatherDisplay:10.37,2013-01-06 17:43:00,
2013-01-06 11:48:00,47.8,29.6,30.38,North,9,5.8,5.8,49,0.00,CLR,,0.00,WeatherDisplay:10.37,2013-01-06 17:48:00,
2013-01-06 11:53:00,48.2,28.4,30.38,NNW,343,6.9,6.9,46,0.00,CLR,,0.00,WeatherDisplay:10.37,2013-01-06 17:53:00,
2013-01-06 11:58:00,48.4,28.0,30.38,NE,42,8.1,8.1,45,0.00,CLR,,0.00,WeatherDisplay:10.37,2013-01-06 17:58:00,
2013-01-06 12:03:00,48.7,28.3,30.38,North,7,8.1,8.1,45,0.00,CLR,,0.00,WeatherDisplay:10.37,2013-01-06 18:03:00,
2013-01-06 12:08:00,49.1,25.8,30.38,North,7,9.2,9.2,40,0.00,CLR,,0.00,WeatherDisplay:10.37,2013-01-06 18:08:00,
2013-01-06 12:13:00,49.5,27.3,30.38,NNE,18,5.8,5.8,42,0.00,CLR,,0.00,WeatherDisplay:10.37,2013-01-06 18:13:00,
2013-01-06 12:18:00,49.8,26.4,30.38,NNE,28,5.8,5.8,40,0.00,CLR,,0.00,WeatherDisplay:10.37,2013-01-06 18:18:00,
2013-01-06 12:23:00,50.0,27.2,30.38,NNE,18,4.6,4.6,41,0.00,CLR,,0.00,WeatherDisplay:10.37,2013-01-06 18:23:00,
2013-01-06 12:28:00,50.0,27.2,30.38,North,5,3.5,3.5,41,0.00,CLR,,0.00,WeatherDisplay:10.37,2013-01-06 18:28:00,
2013-01-06 12:33:00,50.2,26.8,30.38,NNE,17,5.8,5.8,40,0.00,CLR,,0.00,WeatherDisplay:10.37,2013-01-06 18:33:00,
2013-01-06 12:38:00,50.5,26.5,30.35,NE,34,8.1,8.1,39,0.00,CLR,,0.00,WeatherDisplay:10.37,2013-01-06 18:38:00,
2013-01-06 12:43:00,50.5,25.8,30.35,North,7,5.8,5.8,38,0.00,CLR,,0.00,WeatherDisplay:10.37,2013-01-06 18:43:00,
2013-01-06 12:48:00,50.7,27.2,30.35,North,357,3.5,0.0,40,0.00,CLR,,0.00,WeatherDisplay:10.37,2013-01-06 18:48:00,
2013-01-06 12:53:00,51.1,27.0,30.35,North,11,3.5,3.5,39,0.00,CLR,,0.00,WeatherDisplay:10.37,2013-01-06 18:53:00,
2013-01-06 12:58:00,51.3,26.5,30.35,NE,42,3.5,3.5,38,0.00,CLR,,0.00,WeatherDisplay:10.37,2013-01-06 18:58:00,
2013-01-06 13:03:00,51.1,27.0,30.35,NNE,15,3.5,3.5,39,0.00,CLR,,0.00,WeatherDisplay:10.37,2013-01-06 19:03:00,
2013-01-06 13:08:00,51.4,26.6,30.35,North,0,8.1,8.1,38,0.00,CLR,,0.00,WeatherDisplay:10.37,2013-01-06 19:08:00,
2013-01-06 13:13:00,51.8,26.3,30.35,NNE,16,5.8,5.8,37,0.00,CLR,,0.00,WeatherDisplay:10.37,2013-01-06 19:13:00,
2013-01-06 13:18:00,51.8,26.3,30.35,North,357,6.3,6.3,37,0.00,CLR,,0.00,WeatherDisplay:10.37,2013-01-06 19:18:00,
2013-01-06 13:23:00,51.8,26.3,30.35,SE,137,3.5,0.0,37,0.00,CLR,,0.00,WeatherDisplay:10.37,2013-01-06 19:23:00,
2013-01-06 13:28:00,52.0,26.5,30.35,NNE,28,3.5,3.5,37,0.00,CLR,,0.00,WeatherDisplay:10.37,2013-01-06 19:28:00,
2013-01-06 13:33:00,52.0,26.5,30.35,NNE,18,3.5,3.5,37,0.00,CLR,,0.00,WeatherDisplay:10.37,2013-01-06 19:33:00,
2013-01-06 13:38:00,52.3,26.1,30.35,NNW,344,5.8,5.8,36,0.00,CLR,,0.00,WeatherDisplay:10.37,2013-01-06 19:38:00,
2013-01-06 13:48:00,52.5,25.6,30.35,North,357,5.8,5.8,35,0.00,CLR,,0.00,WeatherDisplay:10.37,2013-01-06 19:48:00,
2013-01-06 13:53:00,52.9,25.2,30.32,NNE,16,6.9,6.9,34,0.00,CLR,,0.00,WeatherDisplay:10.37,2013-01-06 19:53:00,
2013-01-06 13:59:00,52.9,26.6,30.32,NNE,19,3.5,0.0,36,0.00,CLR,,0.00,WeatherDisplay:10.37,2013-01-06 19:59:00,
2013-01-06 14:04:00,53.1,24.7,30.32,NNE,15,2.3,0.0,33,0.00,CLR,,0.00,WeatherDisplay:10.37,2013-01-06 20:04:00,
2013-01-06 14:09:00,53.1,22.4,30.32,North,0,3.5,4.0,30,0.00,CLR,,0.00,WeatherDisplay:10.37,2013-01-06 20:09:00,
2013-01-06 14:11:00,53.2,24.1,30.32,North,8,3.5,0.0,32,0.00,CLR,,0.00,WeatherDisplay:10.37,2013-01-06 20:11:00,
2013-01-06 14:13:00,53.2,24.1,30.32,NE,34,8.1,8.1,32,0.00,CLR,,0.00,WeatherDisplay:10.37,2013-01-06 20:13:00,
2013-01-06 14:18:00,53.6,22.9,30.32,North,11,5.8,5.8,30,0.00,CLR,,0.00,WeatherDisplay:10.37,2013-01-06 20:18:00,
2013-01-06 14:23:00,54.0,21.6,30.32,NNE,27,3.5,3.5,28,0.00,CLR,,0.00,WeatherDisplay:10.37,2013-01-06 20:23:00,
2013-01-06 14:28:00,54.1,17.1,30.32,North,9,8.1,8.1,23,0.00,CLR,,0.00,WeatherDisplay:10.37,2013-01-06 20:28:00,
2013-01-06 14:33:00,54.3,20.1,30.32,North,4,5.8,5.8,26,0.00,CLR,,0.00,WeatherDisplay:10.37,2013-01-06 20:33:00,
2013-01-06 14:38:00,54.3,17.3,30.32,North,0,6.3,6.3,23,0.00,CLR,,0.00,WeatherDisplay:10.37,2013-01-06 20:38:00,
2013-01-06 14:43:00,54.3,11.6,30.32,North,357,5.8,5.8,18,0.00,CLR,,0.00,WeatherDisplay:10.37,2013-01-06 20:43:00,
2013-01-06 14:49:00,54.5,19.3,30.32,North,6,5.8,5.8,25,0.00,CLR,,0.00,WeatherDisplay:10.37,2013-01-06 20:49:00,
2013-01-06 14:54:00,54.3,20.1,30.32,NNE,20,3.5,3.5,26,0.00,CLR,,0.00,WeatherDisplay:10.37,2013-01-06 20:54:00,
2013-01-06 14:59:00,54.1,20.0,30.32,NNE,30,5.8,5.8,26,0.00,CLR,,0.00,WeatherDisplay:10.37,2013-01-06 20:59:00,
2013-01-06 15:01:00,54.1,20.0,30.32,NNE,19,5.8,5.8,26,0.00,CLR,,0.00,WeatherDisplay:10.37,2013-01-06 21:01:00,
2013-01-06 15:06:00,54.0,-1.5,30.32,NNE,15,8.1,8.1,10,0.00,CLR,,0.00,WeatherDisplay:10.37,2013-01-06 21:06:00,
2013-01-06 15:11:00,53.8,7.1,30.32,NNW,343,8.1,8.1,15,0.00,CLR,,0.00,WeatherDisplay:10.37,2013-01-06 21:11:00,
2013-01-06 15:16:00,53.4,10.9,30.32,NNW,343,5.8,5.8,18,0.00,CLR,,0.00,WeatherDisplay:10.37,2013-01-06 21:16:00,
2013-01-06 15:21:00,53.6,18.6,30.32,North,11,4.6,4.6,25,0.00,CLR,,0.00,WeatherDisplay:10.37,2013-01-06 21:21:00,
2013-01-06 15:26:00,53.4,20.2,30.32,North,3,3.5,0.0,27,0.00,CLR,,0.00,WeatherDisplay:10.37,2013-01-06 21:26:00,
2013-01-06 15:31:00,53.6,13.4,30.32,NNE,21,5.8,5.8,20,0.00,CLR,,0.00,WeatherDisplay:10.37,2013-01-06 21:31:00,
2013-01-06 15:36:00,53.6,18.6,30.35,North,357,5.8,5.8,25,0.00,CLR,,0.00,WeatherDisplay:10.37,2013-01-06 21:36:00,
2013-01-06 15:41:00,53.4,3.7,30.35,North,4,5.8,5.8,13,0.00,CLR,,0.00,WeatherDisplay:10.37,2013-01-06 21:41:00,
2013-01-06 15:46:00,53.4,3.7,30.35,North,0,5.8,5.8,13,0.00,CLR,,0.00,WeatherDisplay:10.37,2013-01-06 21:46:00,
2013-01-06 15:51:00,53.2,3.6,30.32,North,349,5.8,5.8,13,0.00,CLR,,0.00,WeatherDisplay:10.37,2013-01-06 21:51:00,
2013-01-06 15:56:00,53.2,-6.7,30.32,North,353,6.9,6.9,8,0.00,CLR,,0.00,WeatherDisplay:10.37,2013-01-06 21:56:00,
2013-01-06 16:01:00,53.1,3.4,30.32,North,5,6.9,6.9,13,0.00,CLR,,0.00,WeatherDisplay:10.37,2013-01-06 22:01:00,
2013-01-06 16:06:00,53.1,8.0,30.32,North,0,4.6,0.0,16,0.00,CLR,,0.00,WeatherDisplay:10.37,2013-01-06 22:06:00,
2013-01-06 16:11:00,53.1,10.6,30.32,North,357,4.6,4.6,18,0.00,CLR,,0.00,WeatherDisplay:10.37,2013-01-06 22:11:00,
2013-01-06 16:16:00,52.7,18.7,30.32,NE,50,2.3,0.0,26,0.00,CLR,,0.00,WeatherDisplay:10.37,2013-01-06 22:16:00,
2013-01-06 16:21:00,52.7,10.3,30.32,NNW,340,4.6,4.6,18,0.00,CLR,,0.00,WeatherDisplay:10.37,2013-01-06 22:21:00,
2013-01-06 16:26:00,52.7,3.1,30.32,North,357,5.8,5.8,13,0.00,CLR,,0.00,WeatherDisplay:10.37,2013-01-06 22:26:00,
2013-01-06 16:31:00,52.5,10.2,30.32,North,0,4.9,0.0,18,0.00,CLR,,0.00,WeatherDisplay:10.37,2013-01-06 22:31:00,
2013-01-06 16:37:00,52.2,9.9,30.32,NNW,344,3.5,3.5,18,0.00,CLR,,0.00,WeatherDisplay:10.37,2013-01-06 22:37:00,
2013-01-06 16:42:00,52.2,9.9,30.32,NNW,344,3.5,3.6,18,0.00,CLR,,0.00,WeatherDisplay:10.37,2013-01-06 22:42:00,
2013-01-06 16:47:00,52.0,13.2,30.32,North,0,3.5,3.5,21,0.00,CLR,,0.00,WeatherDisplay:10.37,2013-01-06 22:47:00,
2013-01-06 16:52:00,51.8,13.0,30.32,NNE,25,3.5,3.5,21,0.00,CLR,,0.00,WeatherDisplay:10.37,2013-01-06 22:52:00,
2013-01-06 16:57:00,51.8,9.6,30.32,North,0,4.6,4.6,18,0.00,CLR,,0.00,WeatherDisplay:10.37,2013-01-06 22:57:00,
2013-01-06 17:02:00,51.4,17.6,30.32,North,357,4.6,0.0,26,0.00,CLR,,0.00,WeatherDisplay:10.37,2013-01-06 23:02:00,
2013-01-06 17:07:00,51.3,17.5,30.32,North,353,3.5,3.5,26,0.00,CLR,,0.00,WeatherDisplay:10.37,2013-01-06 23:07:00,
2013-01-06 17:12:00,50.9,18.1,30.32,North,353,3.5,3.5,27,0.00,CLR,,0.00,WeatherDisplay:10.37,2013-01-06 23:12:00,
2013-01-06 17:17:00,50.5,18.6,30.32,NNW,346,3.5,0.0,28,0.00,CLR,,0.00,WeatherDisplay:10.37,2013-01-06 23:17:00,
2013-01-06 17:22:00,50.2,18.3,30.32,North,350,2.3,0.0,28,0.00,CLR,,0.00,WeatherDisplay:10.37,2013-01-06 23:22:00,
2013-01-06 17:27:00,49.8,18.8,30.32,North,353,3.5,3.5,29,0.00,CLR,,0.00,WeatherDisplay:10.37,2013-01-06 23:27:00,
2013-01-06 17:32:00,49.6,18.6,30.32,North,0,3.5,3.5,29,0.00,CLR,,0.00,WeatherDisplay:10.37,2013-01-06 23:32:00,
2013-01-06 17:37:00,49.3,18.3,30.32,NNW,343,3.5,3.5,29,0.00,CLR,,0.00,WeatherDisplay:10.37,2013-01-06 23:37:00,
2013-01-06 17:42:00,49.1,18.2,30.32,North,349,3.5,0.0,29,0.00,CLR,,0.00,WeatherDisplay:10.37,2013-01-06 23:42:00,
2013-01-06 17:47:00,48.6,18.5,30.32,North,349,2.3,2.3,30,0.00,CLR,,0.00,WeatherDisplay:10.37,2013-01-06 23:47:00,
2013-01-06 17:52:00,48.0,18.8,30.32,North,349,0.0,0.0,31,0.00,CLR,,0.00,WeatherDisplay:10.37,2013-01-06 23:52:00,
2013-01-06 17:57:00,47.5,19.8,30.32,North,349,2.3,0.0,33,0.00,CLR,,0.00,WeatherDisplay:10.37,2013-01-06 23:57:00,
2013-01-06 18:02:00,47.3,20.3,30.32,North,349,2.3,0.0,34,0.00,CLR,,0.00,WeatherDisplay:10.37,2013-01-07 00:02:00,
2013-01-06 18:07:00,47.3,21.0,30.32,North,349,2.3,0.0,35,0.00,CLR,,0.00,WeatherDisplay:10.37,2013-01-07 00:07:00,
2013-01-06 18:12:00,46.8,21.2,30.32,North,349,0.0,0.0,36,0.00,CLR,,0.00,WeatherDisplay:10.37,2013-01-07 00:12:00,
2013-01-06 18:17:00,46.6,21.7,30.32,North,349,2.3,0.0,37,0.00,CLR,,0.00,WeatherDisplay:10.37,2013-01-07 00:17:00,
2013-01-06 18:22:00,46.2,22.0,30.32,North,349,2.3,0.0,38,0.00,CLR,,0.00,WeatherDisplay:10.37,2013-01-07 00:22:00,
2013-01-06 18:27:00,45.9,21.7,30.32,North,349,0.0,0.0,38,0.00,CLR,,0.00,WeatherDisplay:10.37,2013-01-07 00:27:00,
2013-01-06 18:32:00,45.7,21.5,30.32,North,349,0.0,0.0,38,0.00,CLR,,0.00,WeatherDisplay:10.37,2013-01-07 00:32:00,
2013-01-06 18:37:00,45.3,21.2,30.32,North,349,0.0,0.0,38,0.00,CLR,,0.00,WeatherDisplay:10.37,2013-01-07 00:37:00,
2013-01-06 18:42:00,44.4,21.0,30.32,North,349,0.0,0.0,39,0.00,CLR,,0.00,WeatherDisplay:10.37,2013-01-07 00:42:00,
2013-01-06 18:47:00,43.5,20.8,30.32,North,349,0.0,0.0,40,0.00,CLR,,0.00,WeatherDisplay:10.37,2013-01-07 00:47:00,
2013-01-06 18:52:00,43.2,20.4,30.32,North,349,0.0,0.0,40,0.00,CLR,,0.00,WeatherDisplay:10.37,2013-01-07 00:52:00,
2013-01-06 18:57:00,42.8,20.7,30.32,North,349,0.0,0.0,41,0.00,CLR,,0.00,WeatherDisplay:10.37,2013-01-07 00:57:00,
2013-01-06 19:02:00,42.4,20.9,30.32,North,349,0.0,0.0,42,0.00,CLR,,0.00,WeatherDisplay:10.37,2013-01-07 01:02:00,
2013-01-06 19:07:00,42.3,20.8,30.35,North,349,0.0,0.0,42,0.00,CLR,,0.00,WeatherDisplay:10.37,2013-01-07 01:07:00,
2013-01-06 19:12:00,41.7,20.3,30.35,North,349,0.0,0.0,42,0.00,CLR,,0.00,WeatherDisplay:10.37,2013-01-07 01:12:00,
2013-01-06 19:17:00,41.5,20.7,30.35,North,349,0.0,0.0,43,0.00,CLR,,0.00,WeatherDisplay:10.37,2013-01-07 01:17:00,
2013-01-06 19:22:00,41.0,20.7,30.35,North,349,0.0,0.0,44,0.00,CLR,,0.00,WeatherDisplay:10.37,2013-01-07 01:22:00,
2013-01-06 19:27:00,40.5,20.8,30.35,North,349,0.0,0.0,45,0.00,CLR,,0.00,WeatherDisplay:10.37,2013-01-07 01:27:00,
2013-01-06 19:32:00,40.3,21.1,30.35,North,349,0.0,0.0,46,0.00,CLR,,0.00,WeatherDisplay:10.37,2013-01-07 01:32:00,
2013-01-06 19:37:00,39.9,20.8,30.35,North,349,0.0,0.0,46,0.00,CLR,,0.00,WeatherDisplay:10.37,2013-01-07 01:37:00,
2013-01-06 19:42:00,39.4,20.8,30.35,North,349,0.0,0.0,47,0.00,CLR,,0.00,WeatherDisplay:10.37,2013-01-07 01:42:00,
2013-01-06 19:47:00,39.2,21.1,30.35,North,349,0.0,0.0,48,0.00,CLR,,0.00,WeatherDisplay:10.37,2013-01-07 01:47:00,
2013-01-06 19:52:00,38.8,21.3,30.35,North,349,0.0,0.0,49,0.00,CLR,,0.00,WeatherDisplay:10.37,2013-01-07 01:52:00,
2013-01-06 19:57:00,38.1,20.6,30.35,North,349,0.0,0.0,49,0.00,CLR,,0.00,WeatherDisplay:10.37,2013-01-07 01:57:00,
2013-01-06 20:02:00,38.1,21.1,30.35,North,349,0.0,0.0,50,0.00,CLR,,0.00,WeatherDisplay:10.37,2013-01-07 02:02:00,
2013-01-06 20:07:00,38.1,21.1,30.35,North,349,0.0,0.0,50,0.00,CLR,,0.00,WeatherDisplay:10.37,2013-01-07 02:07:00,
2013-01-06 20:12:00,37.9,21.4,30.35,North,349,0.0,0.0,51,0.00,CLR,,0.00,WeatherDisplay:10.37,2013-01-07 02:12:00,
2013-01-06 20:17:00,37.8,21.2,30.35,North,349,0.0,0.0,51,0.00,CLR,,0.00,WeatherDisplay:10.37,2013-01-07 02:17:00,
2013-01-06 20:22:00,37.4,20.9,30.35,North,349,0.0,0.0,51,0.00,CLR,,0.00,WeatherDisplay:10.37,2013-01-07 02:22:00,
2013-01-06 20:27:00,37.2,21.2,30.35,North,349,0.0,0.0,52,0.00,CLR,,0.00,WeatherDisplay:10.37,2013-01-07 02:27:00,
2013-01-06 20:32:00,36.7,20.7,30.35,North,349,0.0,0.0,52,0.00,CLR,,0.00,WeatherDisplay:10.37,2013-01-07 02:32:00,
2013-01-06 20:37:00,36.1,20.6,30.35,North,349,0.0,0.0,53,0.00,CLR,,0.00,WeatherDisplay:10.37,2013-01-07 02:37:00,
2013-01-06 20:42:00,36.0,20.9,30.35,North,349,0.0,0.0,54,0.00,CLR,,0.00,WeatherDisplay:10.37,2013-01-07 02:42:00,
2013-01-06 20:47:00,35.8,20.7,30.35,North,349,0.0,0.0,54,0.00,CLR,,0.00,WeatherDisplay:10.37,2013-01-07 02:47:00,
2013-01-06 20:52:00,36.0,21.3,30.35,North,349,0.0,0.0,55,0.00,CLR,,0.00,WeatherDisplay:10.37,2013-01-07 02:52:00,
2013-01-06 20:57:00,35.6,21.0,30.35,North,349,0.0,0.0,55,0.00,CLR,,0.00,WeatherDisplay:10.37,2013-01-07 02:57:00,
2013-01-06 21:02:00,35.4,21.3,30.35,North,349,0.0,0.0,56,0.00,CLR,,0.00,WeatherDisplay:10.37,2013-01-07 03:02:00,
2013-01-06 21:07:00,35.6,21.4,30.35,North,349,0.0,0.0,56,0.00,CLR,,0.00,WeatherDisplay:10.37,2013-01-07 03:07:00,
2013-01-06 21:12:00,35.4,21.7,30.35,North,349,0.0,0.0,57,0.00,CLR,,0.00,WeatherDisplay:10.37,2013-01-07 03:12:00,
2013-01-06 21:17:00,34.9,21.2,30.35,North,349,0.0,0.0,57,0.00,CLR,,0.00,WeatherDisplay:10.37,2013-01-07 03:17:00,
2013-01-06 21:22:00,35.1,21.3,30.35,North,349,0.0,0.0,57,0.00,CLR,,0.00,WeatherDisplay:10.37,2013-01-07 03:22:00,
2013-01-06 21:27:00,35.1,21.3,30.35,North,349,0.0,0.0,57,0.00,CLR,,0.00,WeatherDisplay:10.37,2013-01-07 03:27:00,
2013-01-06 21:32:00,35.1,21.8,30.35,North,349,0.0,0.0,58,0.00,CLR,,0.00,WeatherDisplay:10.37,2013-01-07 03:32:00,
2013-01-06 21:37:00,34.5,20.8,30.35,North,349,0.0,0.0,57,0.00,CLR,,0.00,WeatherDisplay:10.37,2013-01-07 03:37:00,
2013-01-06 21:42:00,33.8,20.6,30.35,North,349,0.0,0.0,58,0.00,CLR,,0.00,WeatherDisplay:10.37,2013-01-07 03:42:00,
2013-01-06 21:47:00,33.6,20.8,30.35,North,349,0.0,0.0,59,0.00,CLR,,0.00,WeatherDisplay:10.37,2013-01-07 03:47:00,
2013-01-06 21:52:00,33.6,21.2,30.35,North,349,0.0,0.0,60,0.00,CLR,,0.00,WeatherDisplay:10.37,2013-01-07 03:52:00,
2013-01-06 21:57:00,33.4,21.0,30.35,North,349,0.0,0.0,60,0.00,CLR,,0.00,WeatherDisplay:10.37,2013-01-07 03:57:00,
2013-01-06 22:02:00,33.3,21.3,30.35,North,349,0.0,0.0,61,0.00,CLR,,0.00,WeatherDisplay:10.37,2013-01-07 04:02:00,
2013-01-06 22:07:00,33.3,21.3,30.35,North,349,0.0,0.0,61,0.00,CLR,,0.00,WeatherDisplay:10.37,2013-01-07 04:07:00,
2013-01-06 22:13:00,33.3,21.6,30.35,North,349,0.0,0.0,62,0.00,CLR,,0.00,WeatherDisplay:10.37,2013-01-07 04:13:00,
2013-01-06 22:18:00,33.3,21.6,30.35,North,349,0.0,0.0,62,0.00,CLR,,0.00,WeatherDisplay:10.37,2013-01-07 04:18:00,
2013-01-06 22:23:00,33.1,21.5,30.35,North,349,0.0,0.0,62,0.00,CLR,,0.00,WeatherDisplay:10.37,2013-01-07 04:23:00,
2013-01-06 22:28:00,33.1,21.5,30.35,North,349,0.0,0.0,62,0.00,CLR,,0.00,WeatherDisplay:10.37,2013-01-07 04:28:00,
2013-01-06 22:33:00,32.7,21.5,30.35,North,349,0.0,0.0,63,0.00,CLR,,0.00,WeatherDisplay:10.37,2013-01-07 04:33:00,
2013-01-06 22:38:00,32.7,21.5,30.35,North,349,0.0,0.0,63,0.00,CLR,,0.00,WeatherDisplay:10.37,2013-01-07 04:38:00,
2013-01-06 22:43:00,32.5,21.3,30.35,North,349,0.0,0.0,63,0.00,CLR,,0.00,WeatherDisplay:10.37,2013-01-07 04:43:00,
2013-01-06 22:48:00,32.5,21.7,30.35,North,349,0.0,0.0,64,0.00,CLR,,0.00,WeatherDisplay:10.37,2013-01-07 04:48:00,
2013-01-06 22:53:00,32.5,21.7,30.35,North,349,0.0,0.0,64,0.00,CLR,,0.00,WeatherDisplay:10.37,2013-01-07 04:53:00,
2013-01-06 22:58:00,32.5,21.7,30.35,North,349,0.0,0.0,64,0.00,CLR,,0.00,WeatherDisplay:10.37,2013-01-07 04:58:00,
2013-01-06 23:00:00,32.4,21.5,30.35,North,349,0.0,0.0,64,0.00,CLR,,0.00,WeatherDisplay:10.37,2013-01-07 05:00:00,
2013-01-06 23:05:00,32.2,21.4,30.35,North,349,0.0,0.0,64,0.00,CLR,,0.00,WeatherDisplay:10.37,2013-01-07 05:05:00,
2013-01-06 23:10:00,32.4,21.9,30.35,North,349,0.0,0.0,65,0.00,CLR,,0.00,WeatherDisplay:10.37,2013-01-07 05:10:00,
2013-01-06 23:15:00,32.5,22.1,30.35,North,349,0.0,0.0,65,0.00,CLR,,0.00,WeatherDisplay:10.37,2013-01-07 05:15:00,
2013-01-06 23:20:00,32.5,22.1,30.35,North,349,0.0,0.0,65,0.00,CLR,,0.00,WeatherDisplay:10.37,2013-01-07 05:20:00,
2013-01-06 23:25:00,32.2,21.7,30.35,North,349,0.0,0.0,65,0.00,CLR,,0.00,WeatherDisplay:10.37,2013-01-07 05:25:00,
2013-01-06 23:30:00,32.0,21.6,30.35,North,349,0.0,0.0,65,0.00,CLR,,0.00,WeatherDisplay:10.37,2013-01-07 05:30:00,
2013-01-06 23:35:00,32.0,21.9,30.35,North,349,0.0,0.0,66,0.00,CLR,,0.00,WeatherDisplay:10.37,2013-01-07 05:35:00,
2013-01-06 23:40:00,32.0,22.3,30.35,North,349,0.0,0.0,67,0.00,CLR,,0.00,WeatherDisplay:10.37,2013-01-07 05:40:00,
2013-01-06 23:45:00,32.2,22.4,30.35,North,349,0.0,0.0,67,0.00,CLR,,0.00,WeatherDisplay:10.37,2013-01-07 05:45:00,
2013-01-06 23:50:00,32.2,22.4,30.35,North,349,0.0,0.0,67,0.00,CLR,,0.00,WeatherDisplay:10.37,2013-01-07 05:50:00,
2013-01-06 23:55:00,32.4,22.3,30.35,North,349,0.0,0.0,66,0.00,CLR,,0.00,WeatherDisplay:10.37,2013-01-07 05:55:00,